When you browse on this site, cookies collect data to enhance your experience and personalize the content and advertising you see.
Visit our Privacy Policy to learn more. By continuing to use the site, you agree to this use of cookies and data.
  • In United Kingdom
  • List of Countries
  • For 7 days
  • Water Temperature
  • Satellite Maps
  • Weather Map
  • Weather Widgets
  • user-avatar
    Login

    Hourly Weather Abancay

    Today, 21 February, Thursday

    Time Temperature Precipitation Wind Pressure Humidity
    00:00 +10°C° 0 mm 0 mps 543 mmHg 86%
    01:00 +10°C° 0 mm 0 mps 543 mmHg 85%
    02:00 +10°C° 0 mm 0 mps 543 mmHg 86%
    03:00 +10°C° 0 mm 0 mps 543 mmHg 86%
    04:00 +10°C° 0 mm 0 mps 543 mmHg 86%
    05:00 +11°C° 0 mm 0 mps 543 mmHg 82%
    06:00 +11°C° 0 mm 0 mps 544 mmHg 79%
    07:00 +13°C° 0 mm 1 mps 545 mmHg 75%
    08:00 +15°C° 0 mm 1 mps 546 mmHg 67%
    09:00 +17°C° 0 mm 2 mps 547 mmHg 59%
    10:00 +19°C° 0 mm 2 mps 548 mmHg 51%
    11:00 +20°C° 0.1 mm 3 mps 548 mmHg 50%
    12:00 +20°C° 0.1 mm 3 mps 548 mmHg 49%
    13:00 +21°C° 0.1 mm 4 mps 548 mmHg 48%
    14:00 +21°C° 0.1 mm 4 mps 547 mmHg 49%
    15:00 +20°C° 0.1 mm 3 mps 547 mmHg 51%
    16:00 +20°C° 0.1 mm 3 mps 546 mmHg 53%
    17:00 +17°C° 0 mm 3 mps 545 mmHg 62%
    18:00 +15°C° 0 mm 2 mps 544 mmHg 72%
    19:00 +13°C° 0 mm 1 mps 543 mmHg 82%
    20:00 +12°C° 0 mm 1 mps 543 mmHg 84%
    21:00 +12°C° 0 mm 1 mps 544 mmHg 85%
    22:00 +12°C° 0 mm 1 mps 544 mmHg 87%
    23:00 +12°C° 0 mm 1 mps 544 mmHg 87%

    Tomorrow, 22 February, Friday

    Time Temperature Precipitation Wind Pressure Humidity
    00:00 +12°C° 0 mm 1 mps 544 mmHg 87%
    01:00 +11°C° 0 mm 0 mps 544 mmHg 87%
    02:00 +11°C° 0.1 mm 0 mps 544 mmHg 88%
    03:00 +10°C° 0.1 mm 0 mps 543 mmHg 88%
    04:00 +10°C° 0.1 mm 0 mps 543 mmHg 88%
    05:00 +11°C° 0 mm 0 mps 544 mmHg 85%
    06:00 +12°C° 0 mm 0 mps 544 mmHg 82%
    07:00 +12°C° 0 mm 0 mps 545 mmHg 79%
    08:00 +15°C° 0.1 mm 1 mps 546 mmHg 70%
    09:00 +17°C° 0.1 mm 2 mps 547 mmHg 62%
    10:00 +19°C° 0.1 mm 2 mps 548 mmHg 53%
    11:00 +19°C° 0.2 mm 2 mps 548 mmHg 53%
    12:00 +20°C° 0.2 mm 3 mps 547 mmHg 53%
    13:00 +20°C° 0.2 mm 3 mps 547 mmHg 53%
    14:00 +20°C° 0.1 mm 3 mps 546 mmHg 53%
    15:00 +20°C° 0.1 mm 3 mps 546 mmHg 52%
    16:00 +20°C° 0.1 mm 3 mps 546 mmHg 52%
    17:00 +18°C° 0 mm 2 mps 545 mmHg 61%
    18:00 +16°C° 0 mm 2 mps 544 mmHg 71%
    19:00 +13°C° 0 mm 1 mps 543 mmHg 80%
    20:00 +13°C° 0 mm 1 mps 544 mmHg 82%
    21:00 +12°C° 0 mm 1 mps 544 mmHg 84%
    22:00 +11°C° 0 mm 0 mps 544 mmHg 86%
    23:00 +11°C° 0 mm 0 mps 544 mmHg 87%

    Day after tomorrow, 23 February, Saturday

    Time Temperature Precipitation Wind Pressure Humidity
    00:00 +11°C° 0 mm 0 mps 544 mmHg 87%
    01:00 +11°C° 0 mm 0 mps 544 mmHg 87%
    02:00 +10°C° 0 mm 0 mps 543 mmHg 87%
    03:00 +10°C° 0 mm 0 mps 543 mmHg 87%
    04:00 +10°C° 0 mm 0 mps 542 mmHg 87%
    05:00 +12°C° 0 mm 1 mps 543 mmHg 83%
    06:00 +13°C° 0 mm 1 mps 544 mmHg 79%
    07:00 +14°C° 0 mm 1 mps 545 mmHg 75%
    08:00 +18°C° 0 mm 1 mps 546 mmHg 65%
    09:00 +20°C° 0 mm 1 mps 547 mmHg 56%
    10:00 +21°C° 0 mm 2 mps 549 mmHg 46%
    11:00 +23°C° 0.3 mm 2 mps 548 mmHg 43%
    12:00 +24°C° 0.3 mm 3 mps 548 mmHg 40%
    13:00 +25°C° 0.3 mm 3 mps 547 mmHg 38%
    14:00 +25°C° 0.3 mm 3 mps 547 mmHg 40%
    15:00 +24°C° 0.3 mm 3 mps 546 mmHg 42%
    16:00 +24°C° 0.3 mm 3 mps 545 mmHg 44%
    17:00 +20°C° 0.3 mm 3 mps 544 mmHg 54%
    18:00 +18°C° 0.3 mm 2 mps 544 mmHg 65%
    19:00 +15°C° 0.3 mm 2 mps 543 mmHg 75%
    20:00 +14°C° 0.1 mm 2 mps 543 mmHg 80%
    21:00 +13°C° 0.1 mm 1 mps 543 mmHg 84%
    22:00 +12°C° 0.1 mm 1 mps 543 mmHg 89%
    23:00 +12°C° 0 mm 1 mps 543 mmHg 89%

    24 February, Sunday

    Time Temperature Precipitation Wind Pressure Humidity
    00:00 +11°C° 0 mm 1 mps 543 mmHg 89%
    01:00 +11°C° 0 mm 1 mps 542 mmHg 89%
    02:00 +11°C° 0 mm 1 mps 542 mmHg 89%
    03:00 +11°C° 0 mm 1 mps 542 mmHg 88%
    04:00 +10°C° 0 mm 0 mps 542 mmHg 87%
    05:00 +11°C° 0 mm 0 mps 542 mmHg 83%
    06:00 +12°C° 0 mm 0 mps 543 mmHg 79%
    07:00 +13°C° 0 mm 0 mps 544 mmHg 75%
    08:00 +18°C° 0 mm 1 mps 545 mmHg 64%
    09:00 +20°C° 0 mm 1 mps 546 mmHg 54%
    10:00 +23°C° 0 mm 1 mps 548 mmHg 44%
    11:00 +24°C° 0.1 mm 2 mps 547 mmHg 41%
    12:00 +25°C° 0.1 mm 3 mps 547 mmHg 37%
    13:00 +26°C° 0.1 mm 3 mps 547 mmHg 34%
    14:00 +26°C° 0.1 mm 3 mps 546 mmHg 36%
    15:00 +25°C° 0.1 mm 4 mps 545 mmHg 39%
    16:00 +23°C° 0.1 mm 4 mps 544 mmHg 41%
    17:00 +20°C° 0.4 mm 3 mps 543 mmHg 53%
    18:00 +18°C° 0.4 mm 3 mps 543 mmHg 64%
    19:00 +15°C° 0.4 mm 2 mps 542 mmHg 76%
    20:00 +14°C° 0.7 mm 2 mps 542 mmHg 80%
    21:00 +14°C° 0.7 mm 1 mps 543 mmHg 84%
    22:00 +12°C° 0.7 mm 0 mps 543 mmHg 88%
    23:00 +12°C° 1.7 mm 0 mps 543 mmHg 89%

    25 February, Monday

    Time Temperature Precipitation Wind Pressure Humidity
    00:00 +12°C° 1.7 mm 0 mps 542 mmHg 90%
    01:00 +12°C° 1.7 mm 1 mps 542 mmHg 91%
    02:00 +11°C° 0.5 mm 0 mps 542 mmHg 90%
    03:00 +11°C° 0.5 mm 0 mps 542 mmHg 89%
    04:00 +11°C° 0.5 mm 0 mps 541 mmHg 88%
    05:00 +12°C° 0.2 mm 0 mps 542 mmHg 85%
    06:00 +12°C° 0.2 mm 0 mps 543 mmHg 82%
    07:00 +13°C° 0.2 mm 0 mps 543 mmHg 79%
    08:00 +16°C° 0 mm 1 mps 544 mmHg 70%
    09:00 +18°C° 0 mm 1 mps 545 mmHg 61%
    10:00 +19°C° 0 mm 2 mps 546 mmHg 53%
    11:00 +21°C° 0.2 mm 3 mps 546 mmHg 49%
    12:00 +22°C° 0.2 mm 3 mps 546 mmHg 45%
    13:00 +24°C° 0.2 mm 3 mps 546 mmHg 41%
    14:00 +24°C° 0.3 mm 3 mps 545 mmHg 42%
    15:00 +24°C° 0.3 mm 3 mps 545 mmHg 44%
    16:00 +22°C° 0.3 mm 3 mps 544 mmHg 45%
    17:00 +20°C° 0.5 mm 3 mps 543 mmHg 55%
    18:00 +17°C° 0.5 mm 2 mps 543 mmHg 66%
    19:00 +15°C° 0.5 mm 2 mps 542 mmHg 76%
    20:00 +14°C° 0.2 mm 2 mps 542 mmHg 80%
    21:00 +13°C° 0.2 mm 1 mps 543 mmHg 84%
    22:00 +13°C° 0.2 mm 1 mps 543 mmHg 88%
    23:00 +12°C° 0 mm 1 mps 542 mmHg 88%

    26 February, Tuesday

    Time Temperature Precipitation Wind Pressure Humidity
    00:00 +12°C° 0 mm 1 mps 542 mmHg 88%
    01:00 +12°C° 0 mm 1 mps 542 mmHg 88%
    02:00 +12°C° 0 mm 1 mps 542 mmHg 88%
    03:00 +12°C° 0 mm 1 mps 541 mmHg 88%
    04:00 +11°C° 0 mm 1 mps 541 mmHg 88%
    05:00 +12°C° 0 mm 1 mps 542 mmHg 85%
    06:00 +13°C° 0 mm 1 mps 543 mmHg 81%
    07:00 +13°C° 0 mm 1 mps 543 mmHg 78%
    08:00 +15°C° 0 mm 1 mps 544 mmHg 68%
    09:00 +18°C° 0 mm 2 mps 545 mmHg 58%
    10:00 +20°C° 0 mm 2 mps 546 mmHg 49%
    11:00 +21°C° 0.1 mm 3 mps 546 mmHg 46%
    12:00 +22°C° 0.1 mm 3 mps 546 mmHg 43%
    13:00 +23°C° 0.1 mm 4 mps 546 mmHg 40%
    14:00 +23°C° 0.2 mm 4 mps 545 mmHg 42%
    15:00 +22°C° 0.2 mm 4 mps 545 mmHg 43%
    16:00 +22°C° 0.2 mm 4 mps 544 mmHg 45%
    17:00 +19°C° 0.1 mm 3 mps 544 mmHg 54%
    18:00 +17°C° 0.1 mm 2 mps 543 mmHg 64%
    19:00 +14°C° 0.1 mm 2 mps 543 mmHg 73%
    20:00 +14°C° 0.1 mm 2 mps 543 mmHg 76%
    21:00 +13°C° 0.1 mm 1 mps 543 mmHg 79%
    22:00 +13°C° 0.1 mm 1 mps 543 mmHg 82%
    23:00 +12°C° 0.1 mm 1 mps 543 mmHg 83%
    Show more